Location: Cactus School
(34.5700°N, 118.0931°W)
Time: 13:20:34
(UTC-07:00)

S-56A Canister/Altair - Pass Details

Date: 21 April 2024
Orbit: 638 x 2488 km, 38.9° (Epoch: 29 May)

Event Time Altitude Azimuth Distance (km) Brightness Sun altitude
Rises 01:58:26 0° 271° (W) 5,203 - -40.7°
Reaches altitude 10° 02:04:53 10° 245° (WSW) 4,609 - -40.2°
Maximum altitude 02:09:17 12° 225° (SW) 4,625 - -39.8°
Drops below altitude 10° 02:14:00 10° 205° (SSW) 4,991 - -39.4°
Sets 02:22:00 0° 181° (S) 6,143 - -38.6°
